Proserpine Hamilton Isla, Australia

5:24 PM AEST on March 23, 2017 (GMT +1000)
Proserpine Hamilton Isla

Weather History for 94368 - January, 2014

Change the Weather History Date:

Monday, January 6, 2014

  Actual Average Record
Temperature  
Mean Temperature 82 °F -  
Max Temperature 87 °F - - ()
Min Temperature 78 °F - - ()
Cooling Degree Days 18    
Growing Degree Days 32 (Base 50)    
Moisture  
Dew Point 72 °F    
Average Humidity 70    
Maximum Humidity 83    
Minimum Humidity 51    
Precipitation  
Precipitation 0.00 in - - ()
Sea Level Pressure  
Sea Level Pressure 29.77 in    
Wind  
Wind Speed 9 mph ()    
Max Wind Speed 18 mph    
Max Gust Speed -    
Visibility 6.2 miles    
Events      
T = Trace of Precipitation, MM = Missing Value Source: Averaged Metar Reports

Daily Weather History Graph

Daily Weather History Graph

Search for Another Location

Airport or City:

Trip Planner

Search our weather history database for the weather conditions in past years. The results will help you decide how hot, cold, wet, or windy it might be!

Date:

Astronomy

Jan. 06, 2014 Rise Set
Actual Time 5:30 AM AEST 6:49 PM AEST
Civil Twilight 5:05 AM AEST 7:13 PM AEST
Nautical Twilight 4:36 AM AEST 7:42 PM AEST
Astronomical Twilight 4:06 AM AEST 8:12 PM AEST
Moon 10:13 AM AEST (1/6) 10:37 PM AEST (1/6)
Length of Visible Light 14h 07m
Length of Day
13h 18m
Waxing Crescent, 28% of the Moon is Illuminated
Jan 6
Waxing Crescent
Jan 8
First Quarter
Jan 16
Full
Jan 24
Last Quarter
Jan 31
New

Hourly Weather History & Observations

Time (AEST) Temp. Heat Index Dew Point Humidity Pressure Visibility Wind Dir Wind Speed Gust Speed Precip Events Conditions
12:00 AM 80 °F - 73 °F 74% 29.81 in - North 6.9 mph - -  
12:00 AM 80.6 °F 85.4 °F 73.4 °F 79% 29.80 in 6.2 mi North 6.9 mph - N/A   Unknown
12:30 AM 80.6 °F 85.4 °F 73.4 °F 79% 29.80 in 6.2 mi North 5.8 mph - N/A   Unknown
1:00 AM 80.6 °F 84.6 °F 71.6 °F 74% 29.80 in 6.2 mi North 9.2 mph - N/A   Unknown
1:30 AM 80.6 °F 85.4 °F 73.4 °F 79% 29.80 in 6.2 mi NE 4.6 mph - N/A   Unknown
2:00 AM 78.8 °F - 73.4 °F 83% 29.77 in 6.2 mi NNE 8.1 mph - N/A   Unknown
2:30 AM 78.8 °F - 73.4 °F 83% 29.77 in 6.2 mi NNE 9.2 mph - N/A   Unknown
3:00 AM 79 °F - 73 °F 76% 29.75 in - North 12.7 mph - -  
3:00 AM 78.8 °F - 73.4 °F 83% 29.74 in 6.2 mi North 12.7 mph - N/A   Unknown
3:30 AM 78.8 °F - 73.4 °F 83% 29.74 in 6.2 mi NNE 15.0 mph - N/A   Unknown
4:00 AM 78.8 °F - 71.6 °F 78% 29.74 in 6.2 mi NNE 10.4 mph - N/A   Unknown
4:30 AM 78.8 °F - 71.6 °F 78% 29.77 in 6.2 mi NNE 8.1 mph - N/A   Unknown
5:00 AM 78.8 °F - 71.6 °F 78% 29.77 in 6.2 mi North 10.4 mph - N/A   Unknown
5:30 AM 78.8 °F - 71.6 °F 78% 29.77 in 6.2 mi North 10.4 mph - N/A   Unknown
6:00 AM 79 °F - 71 °F 69% 29.78 in - North 8.1 mph - -  
6:00 AM 78.8 °F - 71.6 °F 78% 29.77 in 6.2 mi North 8.1 mph - N/A   Unknown
6:30 AM 80.6 °F 83.9 °F 69.8 °F 70% 29.77 in 6.2 mi North 10.4 mph - N/A   Unknown
7:00 AM 80.6 °F 84.6 °F 71.6 °F 74% 29.77 in 6.2 mi North 10.4 mph - N/A   Unknown
7:30 AM 82.4 °F 86.3 °F 69.8 °F 66% 29.77 in 6.2 mi North 10.4 mph - N/A   Unknown
8:00 AM 84.2 °F 89.6 °F 71.6 °F 66% 29.77 in 6.2 mi North 6.9 mph - N/A   Unknown
8:30 AM 84.2 °F 89.6 °F 71.6 °F 66% 29.77 in 6.2 mi North 10.4 mph - N/A   Unknown
9:00 AM 86 °F - 70 °F 51% 29.78 in - NE 13.8 mph - -  
9:00 AM 86.0 °F 90.4 °F 69.8 °F 58% 29.77 in 6.2 mi NE 13.8 mph - N/A   Unknown
9:30 AM 87.8 °F 93.8 °F 71.6 °F 58% 29.80 in 6.2 mi ENE 12.7 mph - N/A   Unknown
10:00 AM 86.0 °F 91.8 °F 71.6 °F 62% 29.80 in 6.2 mi NW 10.4 mph - N/A   Unknown
10:30 AM 84.2 °F 89.6 °F 71.6 °F 66% 29.80 in 6.2 mi WNW 11.5 mph - N/A   Unknown
11:00 AM 84.2 °F 90.9 °F 73.4 °F 70% 29.80 in 6.2 mi WNW 11.5 mph - N/A   Unknown
11:30 AM 84.2 °F 90.9 °F 73.4 °F 70% 29.80 in 6.2 mi NW 12.7 mph - N/A   Unknown
12:00 PM 85 °F - 73 °F 59% 29.79 in - NNW 13.8 mph - -  
12:00 PM 86.0 °F 93.4 °F 73.4 °F 66% 29.80 in 6.2 mi NNW 13.8 mph - N/A   Unknown
12:30 PM 86.0 °F 93.4 °F 73.4 °F 66% 29.77 in 6.2 mi NW 12.7 mph - N/A   Unknown
1:00 PM 86.0 °F 91.8 °F 71.6 °F 62% 29.77 in 6.2 mi NNW 12.7 mph - N/A   Unknown
1:30 PM 87.8 °F 95.6 °F 73.4 °F 62% 29.77 in 6.2 mi NW 10.4 mph - N/A   Unknown
2:00 PM 86.0 °F 93.4 °F 73.4 °F 66% 29.77 in 6.2 mi NW 12.7 mph - N/A   Unknown
2:30 PM 86.0 °F 93.4 °F 73.4 °F 66% 29.77 in 6.2 mi NNW 13.8 mph - N/A   Unknown
3:00 PM 85 °F - 71 °F 55% 29.75 in - NW 15.0 mph - -  
3:00 PM 86.0 °F 91.8 °F 71.6 °F 62% 29.74 in 6.2 mi NW 15.0 mph - N/A   Unknown
3:30 PM 86.0 °F 93.4 °F 73.4 °F 66% 29.74 in 6.2 mi NW 13.8 mph - N/A   Unknown
4:00 PM 86.0 °F 91.8 °F 71.6 °F 62% 29.74 in 6.2 mi NW 11.5 mph - N/A   Unknown
4:30 PM 87.8 °F 95.6 °F 73.4 °F 62% 29.74 in 6.2 mi NE 13.8 mph - N/A   Unknown
5:00 PM 84.2 °F 88.4 °F 69.8 °F 62% 29.74 in 6.2 mi NE 16.1 mph - N/A   Unknown
5:30 PM 82.4 °F 87.2 °F 71.6 °F 70% 29.74 in 6.2 mi NE 18.4 mph - N/A   Unknown
6:00 PM 82 °F - 71 °F 61% 29.76 in - NE 12.7 mph - -  
6:00 PM 82.4 °F 87.2 °F 71.6 °F 70% 29.77 in 6.2 mi NE 12.7 mph - N/A   Unknown
6:30 PM 82.4 °F 86.3 °F 69.8 °F 66% 29.77 in 6.2 mi NNE 15.0 mph - N/A   Unknown
7:00 PM 80.6 °F 83.9 °F 69.8 °F 70% 29.77 in 6.2 mi NNE 9.2 mph - N/A   Unknown
7:30 PM 80.6 °F 84.6 °F 71.6 °F 74% 29.77 in 6.2 mi North 5.8 mph - N/A   Unknown
8:00 PM 80.6 °F 84.6 °F 71.6 °F 74% 29.77 in 6.2 mi North 8.1 mph - N/A   Unknown
8:30 PM 80.6 °F 84.6 °F 71.6 °F 74% 29.77 in 6.2 mi NNE 6.9 mph - N/A   Unknown
9:00 PM 80 °F - 72 °F 71% 29.79 in - NNW 3.5 mph - -  
9:00 PM 78.8 °F - 71.6 °F 78% 29.80 in 6.2 mi NNW 3.5 mph - N/A   Unknown
9:30 PM 78.8 °F - 71.6 °F 78% 29.80 in 6.2 mi NNW 5.8 mph - N/A   Unknown
10:00 PM 78.8 °F - 71.6 °F 78% 29.80 in 6.2 mi North 9.2 mph - N/A   Unknown
10:30 PM 78.8 °F - 71.6 °F 78% 29.80 in 6.2 mi North 8.1 mph - N/A   Unknown
11:00 PM 78.8 °F - 71.6 °F 78% 29.80 in 6.2 mi NNW 5.8 mph - N/A   Unknown
11:30 PM 78.8 °F - 71.6 °F 78% 29.80 in 6.2 mi NNW 5.8 mph - N/A   Unknown